Weather History for KSJX - August, 2013

Change the Weather History Date:

Saturday, August 3, 2013

  Actual Average Record
Temperature  
Mean Temperature 55 °F -  
Max Temperature 62 °F 75 °F 91 °F (2005)
Min Temperature 48 °F 57 °F 46 °F (1965)
Degree Days  
Heating Degree Days 10    
Growing Degree Days 5 (Base 50)    
Moisture  
Dew Point 49 °F    
Average Humidity 74    
Maximum Humidity 100    
Minimum Humidity 59    
Precipitation  
Precipitation 0.00 in - - ()
Sea Level Pressure  
Sea Level Pressure 30.02 in    
Wind  
Wind Speed 6 mph (NW)    
Max Wind Speed 14 mph    
Max Gust Speed 21 mph    
Visibility 10 miles    
Events      
Averages and records for this station are not official NWS values.
T = Trace of Precipitation, MM = Missing Value Source: NWS Daily Summary

Daily Weather History Graph

Daily Weather History Graph

Search for Another Location

Airport or City:

Trip Planner

Search our weather history database for the weather conditions in past years. The results will help you decide how hot, cold, wet, or windy it might be!

Date:

Astronomy

Aug. 03, 2013 Rise Set
Actual Time 6:28 AM EDT 9:07 PM EDT
Civil Twilight 5:54 AM EDT 9:41 PM EDT
Nautical Twilight 5:11 AM EDT 10:24 PM EDT
Astronomical Twilight 4:21 AM EDT 11:13 PM EDT
Moon 3:34 AM EDT (8/3) 6:51 PM EDT (8/3)
Length of Visible Light 15h 47m
Length of Day
14h 39m
Waning Crescent, 9% of the Moon is Illuminated
Aug 3
Waning Crescent
Aug 6
New
Aug 14
First Quarter
Aug 20
Full
Aug 28
Last Quarter

Hourly Weather History & Observations

Time (EDT) Temp. Dew Point Humidity Pressure Visibility Wind Dir Wind Speed Gust Speed Precip Events Conditions
12:15 AM 56.7 °F 50.9 °F 81% 29.93 in 10.0 mi Calm Calm - N/A   Clear
12:35 AM 52.7 °F 50.0 °F 91% 29.93 in 10.0 mi Calm Calm - N/A   Clear
12:55 AM 53.8 °F 50.9 °F 90% 29.93 in 10.0 mi Calm Calm - N/A   Clear
1:15 AM 49.8 °F 49.1 °F 97% 29.93 in 10.0 mi Calm Calm - N/A   Clear
1:35 AM 49.3 °F 48.6 °F 97% 29.93 in 10.0 mi Calm Calm - N/A   Clear
1:39 AM 49.3 °F 48.7 °F 98% 29.93 in 10.0 mi Calm Calm - N/A   Clear
2:17 AM 48.2 °F 48.2 °F 100% 29.93 in 10.0 mi Calm Calm - N/A   Clear
2:38 AM 48.2 °F 48.2 °F 100% 29.93 in 10.0 mi Calm Calm - N/A   Clear
2:56 AM 48.2 °F 48.2 °F 100% 29.93 in 10.0 mi West 3.5 mph - N/A   Clear
3:16 AM 57.2 °F 51.8 °F 82% 29.93 in 10.0 mi WNW 6.9 mph - N/A   Clear
3:36 AM 57.2 °F 50.0 °F 77% 29.94 in 10.0 mi NW 6.9 mph - N/A   Clear
3:56 AM 55.4 °F 50.0 °F 82% 29.94 in 10.0 mi NW 8.1 mph - N/A   Clear
4:16 AM 55.4 °F 50.0 °F 82% 29.95 in 10.0 mi NW 5.8 mph - N/A   Clear
4:37 AM 55.4 °F 50.0 °F 82% 29.95 in 10.0 mi NNW 6.9 mph - N/A   Clear
4:56 AM 55.4 °F 50.0 °F 82% 29.95 in 10.0 mi NNW 6.9 mph - N/A   Clear
5:17 AM 53.6 °F 50.0 °F 88% 29.96 in 10.0 mi NNW 6.9 mph - N/A   Clear
5:36 AM 55.4 °F 50.0 °F 82% 29.96 in 10.0 mi NNW 8.1 mph - N/A   Clear
5:57 AM 55.4 °F 50.0 °F 82% 29.97 in 10.0 mi NNW 5.8 mph - N/A   Clear
6:18 AM 53.6 °F 50.0 °F 88% 29.97 in 10.0 mi NNW 8.1 mph - N/A   Scattered Clouds
6:38 AM 55.4 °F 50.0 °F 82% 29.98 in 10.0 mi NNW 6.9 mph - N/A   Mostly Cloudy
7:00 AM 55.4 °F 50.0 °F 82% 29.98 in 10.0 mi NNW 9.2 mph - N/A   Mostly Cloudy
7:18 AM 55.4 °F 50.0 °F 82% 29.98 in 10.0 mi NNW 9.2 mph - N/A   Scattered Clouds
7:36 AM 55.4 °F 50.0 °F 82% 29.99 in 10.0 mi NW 9.2 mph - N/A   Clear
7:56 AM 55.4 °F 50.0 °F 82% 29.99 in 10.0 mi NW 9.2 mph 16.1 mph N/A   Clear
8:19 AM 57.2 °F 50.0 °F 77% 30.00 in 10.0 mi WNW 8.1 mph - N/A   Scattered Clouds
8:36 AM 57.2 °F 50.0 °F 77% 30.00 in 10.0 mi WNW 9.2 mph 16.1 mph N/A   Mostly Cloudy
8:56 AM 57.2 °F 51.8 °F 82% 30.00 in 10.0 mi WNW 8.1 mph - N/A   Overcast
9:16 AM 59.0 °F 51.8 °F 77% 30.01 in 10.0 mi NW 10.4 mph - N/A   Overcast
9:41 AM 59.0 °F 50.0 °F 72% 30.01 in 10.0 mi NW 12.7 mph 19.6 mph N/A   Overcast
9:56 AM 59.0 °F 50.0 °F 72% 30.00 in 10.0 mi WNW 9.2 mph 18.4 mph N/A   Overcast
10:16 AM 60.8 °F 48.2 °F 63% 30.00 in 10.0 mi NW 10.4 mph - N/A   Overcast
10:36 AM 60.8 °F 50.0 °F 68% 30.01 in 10.0 mi WNW 9.2 mph 17.3 mph N/A   Mostly Cloudy
10:56 AM 60.8 °F 50.0 °F 68% 30.01 in 10.0 mi NW 9.2 mph 16.1 mph N/A   Scattered Clouds
11:16 AM 60.8 °F 50.0 °F 68% 30.01 in 10.0 mi NW 12.7 mph 18.4 mph N/A   Clear
11:37 AM 62.6 °F 50.0 °F 63% 30.03 in 10.0 mi NW 13.8 mph 18.4 mph N/A   Scattered Clouds
11:56 AM 60.8 °F 48.2 °F 63% 30.03 in 10.0 mi NW 10.4 mph 18.4 mph N/A   Mostly Cloudy
12:16 PM 60.8 °F 48.2 °F 63% 30.04 in 10.0 mi NW 10.4 mph 20.7 mph N/A   Overcast
12:36 PM 60.8 °F 48.2 °F 63% 30.04 in 10.0 mi NW 8.1 mph - N/A   Overcast
12:56 PM 60.8 °F 48.2 °F 63% 30.04 in 10.0 mi NW 11.5 mph 17.3 mph N/A   Overcast
1:16 PM 60.8 °F 48.2 °F 63% 30.05 in 10.0 mi WNW 11.5 mph 17.3 mph N/A   Overcast
1:36 PM 62.6 °F 50.0 °F 63% 30.05 in 10.0 mi WNW 6.9 mph - N/A   Overcast
1:56 PM 60.8 °F 48.2 °F 63% 30.06 in 10.0 mi NW 9.2 mph 17.3 mph N/A   Overcast
2:16 PM 62.6 °F 48.2 °F 59% 30.05 in 10.0 mi NNW 11.5 mph - N/A   Overcast
2:37 PM 62.6 °F 48.2 °F 59% 30.06 in 10.0 mi NNW 10.4 mph 16.1 mph N/A   Overcast
2:57 PM 60.8 °F 50.0 °F 68% 30.07 in 10.0 mi WNW 10.4 mph - N/A   Overcast
3:17 PM 62.6 °F 50.0 °F 63% 30.06 in 10.0 mi North 6.9 mph - N/A   Overcast
3:38 PM 62.6 °F 50.0 °F 63% 30.05 in 10.0 mi North 6.9 mph - N/A   Scattered Clouds
4:02 PM 62.6 °F 50.0 °F 63% 30.05 in 10.0 mi WNW 6.9 mph - N/A   Clear
4:17 PM 62.6 °F 50.0 °F 63% 30.05 in 10.0 mi NW 6.9 mph - N/A   Clear
4:37 PM 60.8 °F 50.0 °F 68% 30.06 in 10.0 mi NW 5.8 mph - N/A   Scattered Clouds
4:58 PM 62.6 °F 50.0 °F 63% 30.06 in 10.0 mi WNW 5.8 mph - N/A   Mostly Cloudy
5:21 PM 62.6 °F 50.0 °F 63% 30.06 in 10.0 mi NW 8.1 mph - N/A   Overcast
5:39 PM 62.6 °F 50.0 °F 63% 30.06 in 10.0 mi NNW 8.1 mph - N/A   Overcast
5:58 PM 62.6 °F 50.0 °F 63% 30.06 in 10.0 mi NW 8.1 mph - N/A   Overcast
6:24 PM 62.6 °F 50.0 °F 63% 30.06 in 10.0 mi NW 9.2 mph - N/A   Overcast
6:38 PM 62.6 °F 50.0 °F 63% 30.06 in 10.0 mi NW 10.4 mph - N/A   Overcast
6:57 PM 60.8 °F 50.0 °F 68% 30.06 in 10.0 mi NW 9.2 mph - N/A   Scattered Clouds
7:17 PM 60.8 °F 50.0 °F 68% 30.07 in 10.0 mi NNW 11.5 mph 18.4 mph N/A   Clear
7:37 PM 60.8 °F 48.2 °F 63% 30.07 in 10.0 mi NW 11.5 mph 17.3 mph N/A   Scattered Clouds
7:57 PM 60.8 °F 48.2 °F 63% 30.08 in 10.0 mi NNW 6.9 mph 17.3 mph N/A   Clear
8:17 PM 59.0 °F 48.2 °F 67% 30.08 in 10.0 mi NNW 9.2 mph 16.1 mph N/A   Clear
8:41 PM 57.2 °F 46.4 °F 67% 30.08 in 10.0 mi NNW 10.4 mph 16.1 mph N/A   Clear
8:58 PM 57.2 °F 48.2 °F 72% 30.08 in 10.0 mi NNW 6.9 mph - N/A   Clear
9:17 PM 57.2 °F 48.2 °F 72% 30.08 in 10.0 mi North 6.9 mph - N/A   Clear
9:38 PM 57.2 °F 48.2 °F 72% 30.09 in 10.0 mi NNW 9.2 mph - N/A   Clear
9:58 PM 55.4 °F 48.2 °F 77% 30.10 in 10.0 mi NW 9.2 mph - N/A   Clear
10:17 PM 55.4 °F 48.2 °F 77% 30.10 in 10.0 mi NNW 9.2 mph 16.1 mph N/A   Clear
10:37 PM 55.4 °F 48.2 °F 77% 30.10 in 10.0 mi NNW 6.9 mph 17.3 mph N/A   Clear
10:57 PM 55.4 °F 46.4 °F 72% 30.10 in 10.0 mi NNW 8.1 mph - N/A   Clear
11:18 PM 55.4 °F 48.2 °F 77% 30.11 in 10.0 mi NW 9.2 mph - N/A   Clear
11:37 PM 55.4 °F 48.2 °F 77% 30.11 in 10.0 mi NNW 6.9 mph - N/A   Clear
11:57 PM 55.4 °F 48.2 °F 77% 30.11 in 10.0 mi NNW 10.4 mph 16.1 mph N/A   Clear